Regional Weather Roundup
Issued by NWS Sioux Falls, SD

Home | Current Version | Previous Version | Text Only | Print | Product List | Glossary On
Versions: 1 2 3 4 5 6 7 8 9 10 11 12 13 14 15 16 17 18 19 20 21 22 23 24 25 26 27 28 29 30 31 32 33 34 35 36 37 38 39 40 41 42 43 44 45 46 47 48 49 50
000
ASUS43 KFSD 190802
RWRFSD

WEATHER ROUNDUP FOR SE SOUTH DAKOTA/SW MINNESOTA/NW IOWA
NATIONAL WEATHER SERVICE SIOUX FALLS SD
300 AM CDT SUN APR 19 2015

NOTE: "FAIR" INDICATES FEW OR NO CLOUDS BELOW 12,000 FEET WITH NO
SIGNIFICANT WEATHER AND OR OBSTRUCTIONS TO VISIBILITY.


SDZ038>040-050-052>070-190900-
SOUTHEAST SOUTH DAKOTA

CITY           SKY/WX    TMP DP  RH WIND       PRES   REMARKS
BROOKINGS      CLOUDY    57  55  94 SW5       29.73S VSB 1/4
CHAMBERLAIN    NOT AVBL
HURON          LGT RAIN  52  50  93 NW17      29.75R FOG
MADISON        CLOUDY    54  54 100 SW12      29.74R FOG
MITCHELL       CLOUDY    55  53  93 W12       29.77S FOG
SIOUX FALLS    CLOUDY    57  55  93 SW8       29.73F
WINNER         LGT RAIN  48  45  89 NW17G26   29.85R
YANKTON        CLOUDY    54  52  94 CALM      29.75S VSB 1/2
$$

MNZ071-072-080-081-089-090-097-098-190900-
SOUTHWEST MINNESOTA

CITY           SKY/WX    TMP DP  RH WIND       PRES   REMARKS
FAIRMONT       CLOUDY    55  45  67 S5        29.76F
JACKSON        CLOUDY    55  54  94 SE7       29.77S FOG
LUVERNE        CLOUDY    55  54  94 S10       29.75F FOG
MARSHALL       CLOUDY    55  50  82 S10       29.72F
MONTEVIDEO     CLOUDY    55  55 100 SW9       29.72F FOG
PIPESTONE      CLOUDY    55  54  94 S10       29.73S FOG
REDWOOD FALLS  LGT RAIN  55  53  93 S13       29.74F
TRACY          CLOUDY    55  54  95 S8        29.74F
WORTHINGTON    CLOUDY    54  50  87 S9        29.76S
$$

IAZ001>003-012>014-020>022-031-032-NEZ013-014-SDZ071-190900-
NORTHWEST IOWA

CITY           SKY/WX    TMP DP  RH WIND       PRES   REMARKS
DENISON        CLOUDY    55  55 100 SE5       29.76F FOG
ESTHERVILLE    CLOUDY    54  54 100 S6        29.76F
SIOUX CITY     CLOUDY    55  52  89 SE6       29.75F
SPENCER        FOG       54  52  93 S3        29.76F VSB 1/2
$$

ABBREVIATIONS USED IN REMARKS
   TC - TEMPERATURE IN CELSIUS
  WCI - WIND CHILL INDEX
   HX - HEAT INDEX
  VSB - VISIBILITY




USA.gov is the U.S. government's official web portal to all federal, state and local government web resources and services.